Time,TemperatureF,DewpointF,PressureIn,WindDirection,WindDirectionDegrees,WindSpeedMPH,WindSpeedGustMPH,Humidity,HourlyPrecipIn,Conditions,Clouds,dailyrainin,SolarRadiationWatts/m^2,SoftwareType,DateUTC
2013-03-14 00:00:00,20.0,12.0,-100.00,West,270,2.0,-999.0,71,-99.99,,,-99.99,0.000000,,2013-03-14 04:00:00,
2013-03-14 00:33:00,20.0,12.0,-100.00,West,270,2.0,-999.0,71,-99.99,,,-99.99,0.000000,,2013-03-14 04:33:00,
2013-03-14 00:42:00,20.0,12.0,-100.00,West,270,2.0,-999.0,71,-99.99,,,-99.99,0.000000,,2013-03-14 04:42:00,
2013-03-14 00:53:00,20.0,12.0,-100.00,West,270,2.0,-999.0,71,-99.99,,,-99.99,0.000000,,2013-03-14 04:53:00,
2013-03-14 01:00:00,19.0,12.0,-100.00,West,270,2.0,-999.0,73,-99.99,,,-99.99,0.000000,,2013-03-14 05:00:00,
2013-03-14 01:42:00,19.0,12.0,-100.00,West,270,2.0,-999.0,73,-99.99,,,-99.99,0.000000,,2013-03-14 05:42:00,
2013-03-14 01:53:00,19.0,12.0,-100.00,West,270,2.0,-999.0,73,-99.99,,,-99.99,0.000000,,2013-03-14 05:53:00,
2013-03-14 02:00:00,19.0,12.0,-100.00,West,270,2.0,-999.0,74,-99.99,,,-99.99,0.000000,,2013-03-14 06:00:00,
2013-03-14 02:42:00,19.0,12.0,-100.00,West,270,2.0,-999.0,74,-99.99,,,-99.99,0.000000,,2013-03-14 06:42:00,
2013-03-14 02:52:00,19.0,12.0,-100.00,West,270,2.0,-999.0,74,-99.99,,,-99.99,0.000000,,2013-03-14 06:52:00,
2013-03-14 03:00:00,18.0,12.0,-100.00,West,270,1.0,-999.0,78,-99.99,,,-99.99,0.000000,,2013-03-14 07:00:00,
2013-03-14 03:43:00,18.0,12.0,-100.00,West,270,1.0,-999.0,78,-99.99,,,-99.99,0.000000,,2013-03-14 07:43:00,
2013-03-14 03:52:00,18.0,12.0,-100.00,West,270,1.0,-999.0,78,-99.99,,,-99.99,0.000000,,2013-03-14 07:52:00,
2013-03-14 04:00:00,16.0,11.0,-100.00,WNW,292,0.0,-999.0,81,-99.99,,,-99.99,0.000000,,2013-03-14 08:00:00,
2013-03-14 04:42:00,16.0,11.0,-100.00,WNW,292,0.0,-999.0,81,-99.99,,,-99.99,0.000000,,2013-03-14 08:42:00,
2013-03-14 04:52:00,16.0,11.0,-100.00,WNW,292,0.0,-999.0,81,-99.99,,,-99.99,0.000000,,2013-03-14 08:52:00,
2013-03-14 05:00:00,13.0,10.0,-100.00,West,270,0.0,-999.0,87,-99.99,,,-99.99,0.000000,,2013-03-14 09:00:00,
2013-03-14 05:42:00,13.0,10.0,-100.00,West,270,0.0,-999.0,87,-99.99,,,-99.99,0.000000,,2013-03-14 09:42:00,
2013-03-14 05:52:00,13.0,10.0,-100.00,West,270,0.0,-999.0,87,-99.99,,,-99.99,0.000000,,2013-03-14 09:52:00,
2013-03-14 06:00:00,14.0,11.0,-100.00,West,270,0.0,-999.0,87,-99.99,,,-99.99,0.000000,,2013-03-14 10:00:00,
2013-03-14 06:42:00,14.0,11.0,-100.00,West,270,0.0,-999.0,87,-99.99,,,-99.99,0.000000,,2013-03-14 10:42:00,
2013-03-14 06:52:00,14.0,11.0,-100.00,West,270,0.0,-999.0,87,-99.99,,,-99.99,0.000000,,2013-03-14 10:52:00,
2013-03-14 07:00:00,14.0,11.0,-100.00,West,270,1.0,-999.0,89,-99.99,,,-99.99,0.000000,,2013-03-14 11:00:00,
2013-03-14 07:42:00,14.0,11.0,-100.00,West,270,1.0,-999.0,89,-99.99,,,-99.99,0.000000,,2013-03-14 11:42:00,
2013-03-14 07:53:00,14.0,11.0,-100.00,West,270,1.0,-999.0,89,-99.99,,,-99.99,0.000000,,2013-03-14 11:53:00,
2013-03-14 08:00:00,12.0,10.0,-100.00,West,270,1.0,-999.0,89,-99.99,,,-99.99,0.000000,,2013-03-14 12:00:00,
2013-03-14 08:43:00,12.0,10.0,-100.00,West,270,1.0,-999.0,89,-99.99,,,-99.99,0.000000,,2013-03-14 12:43:00,
2013-03-14 08:52:00,12.0,10.0,-100.00,West,270,1.0,-999.0,89,-99.99,,,-99.99,0.000000,,2013-03-14 12:52:00,
2013-03-14 09:00:00,6.0,3.0,-100.00,West,270,0.0,-999.0,87,-99.99,,,-99.99,23.200001,,2013-03-14 13:00:00,
2013-03-14 09:43:00,6.0,3.0,-100.00,West,270,0.0,-999.0,87,-99.99,,,-99.99,23.200001,,2013-03-14 13:43:00,
2013-03-14 09:52:00,6.0,3.0,-100.00,West,270,0.0,-999.0,87,-99.99,,,-99.99,23.200001,,2013-03-14 13:52:00,
2013-03-14 10:00:00,14.0,8.0,-100.00,WSW,247,0.0,-999.0,77,-99.99,,,-99.99,125.279999,,2013-03-14 14:00:00,
2013-03-14 10:42:00,14.0,8.0,-100.00,WSW,247,0.0,-999.0,77,-99.99,,,-99.99,125.279999,,2013-03-14 14:42:00,
2013-03-14 10:53:00,14.0,8.0,-100.00,WSW,247,0.0,-999.0,77,-99.99,,,-99.99,125.279999,,2013-03-14 14:53:00,
2013-03-14 14:00:00,35.0,13.0,-100.00,SSW,202,1.0,-999.0,40,-99.99,,,-99.99,690.200012,,2013-03-14 18:00:00,
2013-03-14 14:43:00,35.0,13.0,-100.00,SSW,202,1.0,-999.0,40,-99.99,,,-99.99,690.200012,,2013-03-14 18:43:00,
2013-03-14 14:52:00,35.0,13.0,-100.00,SSW,202,1.0,-999.0,40,-99.99,,,-99.99,690.200012,,2013-03-14 18:52:00,
2013-03-14 17:00:00,37.0,15.0,-100.00,SW,225,6.0,-999.0,40,-99.99,,,-99.99,493.000000,,2013-03-14 21:00:00,
2013-03-14 17:43:00,37.0,15.0,-100.00,SW,225,6.0,-999.0,40,-99.99,,,-99.99,493.000000,,2013-03-14 21:43:00,
2013-03-14 17:53:00,37.0,15.0,-100.00,SW,225,6.0,-999.0,40,-99.99,,,-99.99,493.000000,,2013-03-14 21:53:00,
2013-03-14 18:00:00,36.0,16.0,-100.00,SSW,202,6.0,-999.0,43,-99.99,,,-99.99,284.200012,,2013-03-14 22:00:00,
2013-03-14 18:42:00,36.0,16.0,-100.00,SSW,202,6.0,-999.0,43,-99.99,,,-99.99,284.200012,,2013-03-14 22:42:00,
2013-03-14 18:52:00,36.0,16.0,-100.00,SSW,202,6.0,-999.0,43,-99.99,,,-99.99,284.200012,,2013-03-14 22:52:00,
2013-03-14 19:00:00,32.0,16.0,-100.00,South,180,6.0,-999.0,49,-99.99,,,-99.99,119.480003,,2013-03-14 23:00:00,
2013-03-14 19:43:00,32.0,16.0,-100.00,South,180,6.0,-999.0,49,-99.99,,,-99.99,119.480003,,2013-03-14 23:43:00,
2013-03-14 19:53:00,32.0,16.0,-100.00,South,180,6.0,-999.0,49,-99.99,,,-99.99,119.480003,,2013-03-14 23:53:00,
2013-03-14 20:00:00,30.0,14.0,-100.00,South,180,5.0,-999.0,51,-99.99,,,-99.99,26.680000,,2013-03-15 00:00:00,
2013-03-14 20:43:00,30.0,14.0,-100.00,South,180,5.0,-999.0,51,-99.99,,,-99.99,26.680000,,2013-03-15 00:43:00,
2013-03-14 20:52:00,30.0,14.0,-100.00,South,180,5.0,-999.0,51,-99.99,,,-99.99,26.680000,,2013-03-15 00:52:00,
2013-03-14 22:00:00,28.0,18.0,-100.00,SW,225,5.0,-999.0,65,-99.99,,,-99.99,0.000000,,2013-03-15 02:00:00,
2013-03-14 22:42:00,28.0,18.0,-100.00,SW,225,5.0,-999.0,65,-99.99,,,-99.99,0.000000,,2013-03-15 02:42:00,
2013-03-14 22:52:00,28.0,18.0,-100.00,SW,225,5.0,-999.0,65,-99.99,,,-99.99,0.000000,,2013-03-15 02:52:00,